When you browse on this site, cookies collect data to enhance your experience and personalize the content and advertising you see.
Visit our Privacy Policy to learn more. By continuing to use the site, you agree to this use of cookies and data.
  • In Österreich
  • Länderverzeichnis
  • Für 7 Tage
  • Wassertemperatur
  • Satellitenkarten
  • Wetterkarte
  • News
  • Widgets
  • user-avatar
    Anmelden

    Stündliche Wetter Namibe

    Heute, 25 Juni, Dienstag

    Zeit Temperatur Niederschläge Wind Luftdruck Luftfeuchtigkeit
    00:00 +19°C° 0 mm 2 m/S 760 mmHg 85%
    01:00 +19°C° 0 mm 3 m/S 760 mmHg 85%
    02:00 +19°C° 0 mm 3 m/S 760 mmHg 87%
    03:00 +18°C° 0 mm 3 m/S 760 mmHg 88%
    04:00 +18°C° 0 mm 3 m/S 759 mmHg 89%
    05:00 +18°C° 0 mm 3 m/S 760 mmHg 90%
    06:00 +17°C° 0 mm 2 m/S 760 mmHg 91%
    07:00 +17°C° 0 mm 2 m/S 760 mmHg 92%
    08:00 +19°C° 0 mm 2 m/S 761 mmHg 84%
    09:00 +20°C° 0 mm 2 m/S 761 mmHg 76%
    10:00 +23°C° 0 mm 2 m/S 761 mmHg 68%
    11:00 +24°C° 0 mm 3 m/S 760 mmHg 63%
    12:00 +25°C° 0 mm 4 m/S 760 mmHg 58%
    13:00 +27°C° 0 mm 5 m/S 759 mmHg 53%
    14:00 +26°C° 0 mm 5 m/S 759 mmHg 57%
    15:00 +25°C° 0 mm 5 m/S 759 mmHg 61%
    16:00 +23°C° 0 mm 5 m/S 759 mmHg 65%
    17:00 +21°C° 0 mm 5 m/S 759 mmHg 72%
    18:00 +20°C° 0 mm 4 m/S 759 mmHg 79%
    19:00 +19°C° 0 mm 4 m/S 760 mmHg 86%
    20:00 +18°C° 0 mm 4 m/S 760 mmHg 87%
    21:00 +18°C° 0 mm 4 m/S 760 mmHg 89%
    22:00 +17°C° 0 mm 3 m/S 761 mmHg 91%
    23:00 +17°C° 0 mm 3 m/S 761 mmHg 90%

    Morgen, 26 Juni, Mittwoch

    Zeit Temperatur Niederschläge Wind Luftdruck Luftfeuchtigkeit
    00:00 +17°C° 0 mm 3 m/S 760 mmHg 90%
    01:00 +16°C° 0 mm 3 m/S 760 mmHg 90%
    02:00 +16°C° 0 mm 3 m/S 760 mmHg 89%
    03:00 +16°C° 0 mm 3 m/S 760 mmHg 89%
    04:00 +16°C° 0 mm 3 m/S 759 mmHg 88%
    05:00 +16°C° 0 mm 2 m/S 760 mmHg 87%
    06:00 +16°C° 0 mm 2 m/S 760 mmHg 87%
    07:00 +16°C° 0 mm 2 m/S 760 mmHg 86%
    08:00 +18°C° 0 mm 2 m/S 760 mmHg 75%
    09:00 +21°C° 0 mm 2 m/S 761 mmHg 65%
    10:00 +24°C° 0 mm 2 m/S 761 mmHg 54%
    11:00 +25°C° 0 mm 3 m/S 760 mmHg 55%
    12:00 +25°C° 0 mm 4 m/S 760 mmHg 56%
    13:00 +25°C° 0 mm 5 m/S 760 mmHg 56%
    14:00 +25°C° 0 mm 5 m/S 759 mmHg 59%
    15:00 +23°C° 0 mm 5 m/S 759 mmHg 62%
    16:00 +23°C° 0 mm 5 m/S 759 mmHg 65%
    17:00 +22°C° 0 mm 5 m/S 760 mmHg 70%
    18:00 +21°C° 0 mm 4 m/S 761 mmHg 75%
    19:00 +20°C° 0 mm 4 m/S 761 mmHg 81%
    20:00 +20°C° 0 mm 3 m/S 762 mmHg 79%
    21:00 +20°C° 0 mm 3 m/S 762 mmHg 78%
    22:00 +20°C° 0 mm 2 m/S 763 mmHg 76%
    23:00 +19°C° 0 mm 3 m/S 762 mmHg 77%

    übermorgen, 27 Juni, Donnerstag

    Zeit Temperatur Niederschläge Wind Luftdruck Luftfeuchtigkeit
    00:00 +19°C° 0 mm 3 m/S 762 mmHg 77%
    01:00 +19°C° 0 mm 3 m/S 762 mmHg 77%
    02:00 +18°C° 0 mm 3 m/S 761 mmHg 79%
    03:00 +17°C° 0 mm 3 m/S 761 mmHg 81%
    04:00 +17°C° 0 mm 2 m/S 760 mmHg 84%
    05:00 +17°C° 0 mm 2 m/S 761 mmHg 85%
    06:00 +16°C° 0 mm 2 m/S 761 mmHg 87%
    07:00 +16°C° 0 mm 2 m/S 761 mmHg 88%
    08:00 +18°C° 0 mm 2 m/S 761 mmHg 80%
    09:00 +19°C° 0 mm 2 m/S 762 mmHg 72%
    10:00 +21°C° 0 mm 2 m/S 762 mmHg 64%
    11:00 +22°C° 0 mm 3 m/S 761 mmHg 61%
    12:00 +23°C° 0 mm 4 m/S 761 mmHg 57%
    13:00 +25°C° 0 mm 5 m/S 760 mmHg 53%
    14:00 +23°C° 0 mm 5 m/S 760 mmHg 56%
    15:00 +23°C° 0 mm 5 m/S 760 mmHg 59%
    16:00 +22°C° 0 mm 5 m/S 759 mmHg 62%
    17:00 +21°C° 0 mm 5 m/S 760 mmHg 69%
    18:00 +20°C° 0 mm 5 m/S 760 mmHg 75%
    19:00 +17°C° 0 mm 5 m/S 761 mmHg 81%
    20:00 +17°C° 0 mm 5 m/S 761 mmHg 82%
    21:00 +16°C° 0 mm 5 m/S 761 mmHg 83%
    22:00 +15°C° 0 mm 5 m/S 762 mmHg 85%
    23:00 +15°C° 0 mm 4 m/S 761 mmHg 85%

    28 Juni, Freitag

    Zeit Temperatur Niederschläge Wind Luftdruck Luftfeuchtigkeit
    00:00 +15°C° 0 mm 4 m/S 761 mmHg 86%
    01:00 +14°C° 0 mm 4 m/S 761 mmHg 87%
    02:00 +14°C° 0 mm 4 m/S 761 mmHg 88%
    03:00 +14°C° 0 mm 4 m/S 760 mmHg 89%
    04:00 +14°C° 0 mm 4 m/S 760 mmHg 90%
    05:00 +14°C° 0 mm 4 m/S 761 mmHg 90%
    06:00 +14°C° 0 mm 3 m/S 761 mmHg 89%
    07:00 +14°C° 0 mm 3 m/S 761 mmHg 88%
    08:00 +17°C° 0 mm 3 m/S 761 mmHg 77%
    09:00 +20°C° 0 mm 3 m/S 761 mmHg 65%
    10:00 +22°C° 0 mm 3 m/S 761 mmHg 54%
    11:00 +23°C° 0 mm 4 m/S 761 mmHg 52%
    12:00 +26°C° 0 mm 5 m/S 760 mmHg 50%
    13:00 +27°C° 0 mm 6 m/S 760 mmHg 49%
    14:00 +26°C° 0 mm 5 m/S 759 mmHg 54%
    15:00 +23°C° 0 mm 5 m/S 759 mmHg 59%
    16:00 +22°C° 0 mm 5 m/S 759 mmHg 64%
    17:00 +21°C° 0 mm 5 m/S 759 mmHg 72%
    18:00 +20°C° 0 mm 4 m/S 760 mmHg 79%
    19:00 +18°C° 0 mm 4 m/S 760 mmHg 87%
    20:00 +18°C° 0 mm 3 m/S 761 mmHg 87%
    21:00 +18°C° 0 mm 3 m/S 761 mmHg 88%
    22:00 +17°C° 0 mm 3 m/S 761 mmHg 88%
    23:00 +17°C° 0 mm 3 m/S 761 mmHg 88%

    29 Juni, Samstag

    Zeit Temperatur Niederschläge Wind Luftdruck Luftfeuchtigkeit
    00:00 +17°C° 0 mm 3 m/S 761 mmHg 87%
    01:00 +16°C° 0 mm 3 m/S 761 mmHg 86%
    02:00 +16°C° 0 mm 2 m/S 761 mmHg 87%
    03:00 +16°C° 0 mm 2 m/S 760 mmHg 87%
    04:00 +15°C° 0 mm 2 m/S 760 mmHg 87%
    05:00 +16°C° 0 mm 2 m/S 760 mmHg 86%
    06:00 +16°C° 0 mm 1 m/S 761 mmHg 84%
    07:00 +16°C° 0 mm 1 m/S 761 mmHg 82%
    08:00 +19°C° 0 mm 1 m/S 761 mmHg 72%
    09:00 +22°C° 0 mm 1 m/S 761 mmHg 62%
    10:00 +24°C° 0 mm 1 m/S 761 mmHg 51%
    11:00 +25°C° 0 mm 2 m/S 760 mmHg 50%
    12:00 +26°C° 0 mm 3 m/S 760 mmHg 49%
    13:00 +27°C° 0 mm 4 m/S 759 mmHg 48%
    14:00 +26°C° 0 mm 4 m/S 759 mmHg 51%
    15:00 +25°C° 0 mm 4 m/S 758 mmHg 53%
    16:00 +25°C° 0 mm 4 m/S 758 mmHg 56%
    17:00 +22°C° 0 mm 4 m/S 759 mmHg 64%
    18:00 +21°C° 0 mm 3 m/S 759 mmHg 72%
    19:00 +20°C° 0 mm 3 m/S 760 mmHg 81%
    20:00 +19°C° 0 mm 3 m/S 760 mmHg 83%
    21:00 +19°C° 0 mm 2 m/S 761 mmHg 84%
    22:00 +18°C° 0 mm 2 m/S 761 mmHg 86%
    23:00 +18°C° 0 mm 2 m/S 761 mmHg 87%

    30 Juni, Sonntag

    Zeit Temperatur Niederschläge Wind Luftdruck Luftfeuchtigkeit
    00:00 +17°C° 0 mm 3 m/S 761 mmHg 88%
    01:00 +17°C° 0 mm 3 m/S 761 mmHg 88%
    02:00 +17°C° 0 mm 3 m/S 761 mmHg 87%
    03:00 +17°C° 0 mm 3 m/S 761 mmHg 87%
    04:00 +17°C° 0 mm 3 m/S 760 mmHg 86%
    05:00 +17°C° 0 mm 4 m/S 761 mmHg 86%
    06:00 +17°C° 0 mm 4 m/S 761 mmHg 86%
    07:00 +15°C° 0 mm 4 m/S 761 mmHg 87%
    08:00 +18°C° 0 mm 4 m/S 762 mmHg 77%
    09:00 +21°C° 0 mm 4 m/S 762 mmHg 66%
    10:00 +24°C° 0 mm 3 m/S 762 mmHg 56%
    11:00 +26°C° 0 mm 4 m/S 761 mmHg 51%
    12:00 +28°C° 0 mm 4 m/S 760 mmHg 45%
    13:00 +30°C° 0 mm 5 m/S 760 mmHg 39%
    14:00 +29°C° 0 mm 5 m/S 759 mmHg 43%
    15:00 +28°C° 0 mm 5 m/S 759 mmHg 47%
    16:00 +27°C° 0 mm 5 m/S 758 mmHg 51%
    17:00 +25°C° 0 mm 5 m/S 759 mmHg 58%
    18:00 +22°C° 0 mm 5 m/S 759 mmHg 65%
    19:00 +21°C° 0 mm 5 m/S 759 mmHg 73%
    20:00 +20°C° 0 mm 4 m/S 760 mmHg 74%
    21:00 +19°C° 0 mm 3 m/S 760 mmHg 75%
    22:00 +19°C° 0 mm 3 m/S 760 mmHg 76%
    23:00 +18°C° 0 mm 2 m/S 760 mmHg 77%
    Mehr zeigen